Location: Glens Falls
(43.3090°N, 73.6440°W)
Time: 00:06:19
(UTC-04:00)

Daily predictions for brighter satellites

Satellite Brightness Start Highest point End
(mag) Time Altitude Azimuth Time Altitude Azimuth Time Altitude Azimuth
Cosmos 2058 3.2 00:05:54 53° E 00:05:54 53° E 00:09:56 10° NNE
Lacrosse 5 4.0 00:03:03 10° W 00:07:19 27° NNW 00:11:36 10° NE
Nadezhda 1 Rocket 4.4 00:05:57 38° SE 00:07:53 50° E 00:14:01 10° NNE
CZ-4 R/B 3.8 00:08:59 10° N 00:13:49 79° WNW 00:14:51 55° SSW
Cosmos 1241 Rocket 4.4 00:17:26 47° S 00:19:11 68° ESE 00:25:23 10° NE
Cosmos 1500 Rocket 4.2 00:20:48 40° E 00:20:49 40° E 00:24:54 10° NNE
ALOS 2 2.4 00:20:27 72° SE 00:20:52 84° ENE 00:25:16 10° NNW
Cosmos 2278 Rocket 3.4 00:20:26 15° WSW 00:24:39 39° WNW 00:29:58 10° NNE
NOSS 3-4 (A) 3.9 00:20:16 17° SW 00:25:07 60° NW 00:31:32 10° NNE
NOSS 3-4 (C) 3.9 00:20:26 17° SW 00:25:12 60° NW 00:31:37 10° NNE
NOSS 2-2 (E) 3.9 00:24:27 42° W 00:25:27 56° NW 00:29:56 10° NNE
Cosmos 407 Rocket 3.6 00:25:31 51° SE 00:26:03 54° ESE 00:31:05 10° NNE
Cosmos 2074 Rocket 4.0 00:23:07 10° N 00:29:23 79° W 00:31:22 47° S
Cosmos 1809 Rocket 4.3 00:26:10 10° N 00:32:17 86° E 00:34:05 49° SSE
Cosmos 1441 Rocket 3.3 00:30:33 10° NNW 00:34:02 67° NW 00:34:02 67° NW
Cosmos 1190 Rocket 3.9 00:35:11 59° SSE 00:35:57 68° ESE 00:41:09 10° NNE
CENTAUR R/B 3.1 00:29:21 10° NW 00:37:23 83° SW 00:41:25 36° SSE
Cosmos 1766 Rocket 4.5 00:37:40 36° WSW 00:38:32 40° WNW 00:42:46 10° N
Cosmos 1408 Rocket 4.2 00:40:10 42° WSW 00:40:51 46° WNW 00:45:11 10° N
ADEOS Rocket 3.0 00:35:01 10° NNE 00:40:53 82° WNW 00:43:06 43° SSW
Cosmos 405 Rocket 2.9 00:38:05 10° NNW 00:41:21 65° NW 00:41:21 65° NW
DELTA 2 DEB (DPAF) 4.2 00:41:48 58° WSW 00:42:03 59° WSW 00:46:28 10° NNW
USA 234 3.3 00:37:49 10° NE 00:44:17 61° SE 00:46:17 44° S
Cosmos 1515 Rocket 3.4 00:43:18 10° N 00:47:43 77° W 00:47:56 75° SW
Cosmos 1151 Rocket 2.9 00:44:46 10° NNW 00:49:03 73° W 00:49:07 73° WSW
SL-27 R/B 4.0 00:47:10 10° NW 00:49:37 28° WNW 00:49:37 28° WNW
RESURS DK-1 2.9 00:50:15 48° W 00:50:46 52° WNW 00:54:51 10° NNE
Cosmos 1869 3.3 00:47:39 10° N 00:51:31 83° N 00:51:31 83° N
H-2A R/B 2.0 00:53:56 67° W 00:53:56 67° W 00:57:56 10° NNW
Cosmos 371 Rocket 3.5 00:49:12 10° NNW 00:54:03 65° ENE 00:54:59 52° ESE
SL-24 R/B 4.4 00:50:49 10° NNE 00:55:10 60° E 00:55:35 57° SE
Cosmos 1610 Rocket 4.5 00:49:56 10° NNW 00:56:11 74° W 00:57:58 48° SSW
Cosmos 2369 Rocket 3.1 00:55:50 32° ESE 00:56:35 33° ESE 01:01:36 10° NE
Meteor 2-14 Rocket 4.4 00:56:53 10° NNW 01:02:56 73° W 01:04:35 49° SSW
Cosmos 2297 4.4 01:01:31 29° WSW 01:04:05 48° WNW 01:09:38 10° NNE
Meteor 2-10 Rocket 3.5 00:59:04 10° NNW 01:04:10 70° W 01:05:02 58° SSW
Orbus 7S? 4.5 01:04:39 28° NNW 01:04:39 28° NNW 01:06:50 10° NNE
Mayak 0.1 01:03:15 10° N 01:06:55 30° WNW 01:07:42 28° W
Cosmos 1023 Rocket 4.4 01:06:51 60° SSE 01:07:31 69° ESE 01:12:35 10° NNE
Cosmos 2228 Rocket 3.5 01:04:08 10° NNW 01:08:27 48° W 01:08:37 47° W
Cosmos 2154 Rocket 4.1 01:04:34 10° NNW 01:10:54 69° W 01:12:48 46° SSW
Cosmos 2082 Rocket 3.2 01:06:29 10° NW 01:11:25 31° WSW 01:12:02 30° WSW
deb Chang Zheng 4 3.5 01:07:44 10° N 01:12:08 79° WNW 01:12:31 72° SW
Cosmos 2181 Rocket 4.1 01:13:16 44° SSE 01:15:16 68° E 01:21:30 10° NNE
ATLAS 5 CENTAUR R/B 3.4 01:14:01 16° W 01:16:59 31° NW 01:21:27 10° NNE
Cosmos 1833 Rocket 4.1 01:16:20 10° NW 01:20:35 22° W 01:20:59 22° WSW
Cosmos 2151 4.4 01:20:45 26° W 01:21:21 27° WNW 01:25:02 10° NNW
Cosmos 2341 Rocket 4.0 01:15:08 10° N 01:21:30 85° W 01:23:35 46° S
Cosmos 332 Rocket 3.7 01:17:05 10° NNW 01:21:59 67° WSW 01:22:28 62° SW
Meteor 2-8 Rocket 4.4 01:25:02 48° S 01:26:55 87° E 01:33:07 10° N
In-Cosmos 22 Rocket 4.0 01:30:42 56° S 01:31:53 90° W 01:37:17 10° N
Cosmos 1825 4.2 01:32:50 18° E 01:33:15 18° E 01:35:53 10° NE
Cosmos 2218 Rocket 4.1 01:29:50 10° N 01:36:01 70° E 01:38:28 38° SSE
Cosmos 1805 Rocket 3.4 01:40:58 68° SW 01:41:21 75° W 01:45:46 10° N
SL-8 Rocket 3.9 01:35:04 10° N 01:41:22 89° W 01:43:39 43° S
Cosmos 1900 4.5 01:40:36 48° WSW 01:41:49 68° NW 01:46:43 10° NNE
Cosmos 1933 3.2 01:40:35 10° N 01:44:37 84° E 01:44:46 80° SE
Cosmos 1408 4.0 01:44:25 28° E 01:44:39 28° E 01:47:52 10° NNE
Cosmos 1741 Rocket 4.2 01:44:36 49° SSE 01:45:48 63° ESE 01:51:02 10° NNE
COSMOS 2487 3.6 01:43:45 10° NNW 01:46:11 34° WNW 01:46:11 34° WNW
CZ-4B R/B 2.9 01:46:58 26° ENE 01:47:11 27° ENE 01:49:51 10° NNE
Cosmos 1943 Rocket 2.2 01:45:58 48° S 01:47:20 66° ESE 01:52:52 10° NNE
Sich 1 2.9 01:49:47 70° SSW 01:50:15 88° W 01:54:41 10° N
Meteor 1-26 Rocket 4.4 01:45:13 10° N 01:50:57 66° ENE 01:53:18 35° SSE
MOS 1 Rocket 3.4 01:46:21 10° N 01:51:21 69° WNW 01:52:22 52° SW
BREEZE-M TANK 2.8 01:55:45 48° SE 01:55:45 48° SE 01:58:03 10° E
Cosmos 1892 2.7 01:56:16 64° WNW 01:56:16 64° WNW 01:59:59 10° N
Cosmos 1140 Rocket 4.2 01:55:35 34° WSW 01:57:12 44° WNW 02:02:08 10° N
Timation 2 Rocket 4.1 01:51:16 10° NNW 01:57:54 66° WSW 02:00:37 38° S
CZ-2D R/B 3.9 01:54:03 10° NE 01:58:07 22° E 02:00:48 15° SE
CZ-4C R/B 3.0 02:03:26 76° WNW 02:03:26 76° WNW 02:07:01 10° NNW
Cosmos 1782 4.4 02:00:16 10° NNE 02:03:46 29° ENE 02:05:26 21° ESE
Cosmos 1707 Rocket 3.7 02:00:20 10° NNW 02:04:40 56° W 02:05:04 53° WSW
SL-16 R/B 3.6 02:01:26 10° SE 02:07:02 41° ENE 02:12:46 10° N
Cosmos 2366 rocket 3.9 02:01:30 10° N 02:07:38 75° W 02:09:59 40° S
Cosmos 1633 Rocket 3.0 02:08:40 59° SW 02:09:24 75° W 02:13:51 10° N
Cosmos 1470 Rocket 3.8 02:14:17 46° SSE 02:15:25 66° E 02:19:52 10° NNE
Meteor 2-15 4.4 02:14:33 38° S 02:17:04 85° E 02:23:10 10° N
H-2A R/B 4.2 02:14:30 10° NE 02:17:39 22° E 02:19:02 18° ESE
Helios 1B 4.5 02:17:03 55° S 02:17:56 76° WSW 02:22:17 10° NNW
Nadezhda 3 Rocket 4.3 02:15:53 29° SSE 02:19:08 62° E 02:25:24 10° NNE
CRYOSAT 2 4.3 02:22:03 44° S 02:23:36 81° W 02:28:30 10° N
Cosmos 304 Rocket 4.1 02:20:16 10° NNW 02:24:50 46° WSW 02:25:32 43° SW
USA 234 4.0 02:20:57 10° NE 02:27:12 49° NNW 02:33:26 10° W
CENTAUR R/B 4.4 02:21:44 10° WNW 02:27:17 20° WSW 02:28:33 19° WSW
Landsat 5 3.2 02:26:59 60° SW 02:27:18 63° WSW 02:31:09 10° NNW
Meteor 2-3 Rocket 3.8 02:25:50 38° SSW 02:28:04 73° W 02:33:54 10° N
Cosmos 1570 Rocket 4.0 02:23:51 10° NNW 02:29:05 65° WSW 02:30:55 39° S
Resurs 1-4 Rocket 2.9 02:25:38 10° NNE 02:30:42 43° E 02:33:30 24° SSE
Cosmos 1666 Rocket 4.5 02:31:34 31° W 02:32:26 34° WNW 02:36:25 10° N
Cosmos 1933 Rocket 3.4 02:36:28 46° S 02:37:44 87° WNW 02:42:07 10° N
Cosmos 2369 Rocket 3.1 02:37:37 23° WSW 02:40:31 38° WNW 02:45:47 10° N
Cosmos 1689 Rocket 2.4 02:41:36 53° WNW 02:41:36 53° WNW 02:44:19 10° NNW
COSMOS 2455 3.7 02:38:52 10° NNW 02:44:44 50° NE 02:50:33 10° SE
BREEZE-M DEB (TANK) 3.1 02:42:16 23° WSW 02:46:24 80° SSE 02:49:05 10° ENE
GP-B 3.1 02:47:21 10° N 02:51:47 66° W 02:53:22 38° SSW
Lacrosse 4 Rocket 1.6 02:52:46 37° S 02:54:22 66° ESE 02:58:48 10° NE
Cosmos 2242 Rocket 4.2 02:52:39 10° NNW 02:56:52 41° W 02:58:04 34° SW
CBERS-1 4.0 02:53:43 10° NNE 02:58:53 88° WNW 03:01:34 29° SSW
Cosmos 292 Rocket 3.8 02:54:20 10° NNW 02:59:11 83° ENE 03:03:10 15° SSE
ARIANE 5 R/B 3.3 02:55:16 10° NNE 03:00:03 44° E 03:03:30 18° SSE
SL-08 R/B 3.2 03:00:50 24° S 03:03:41 80° WSW 03:08:24 10° NNW
Cosmos 1606 3.4 03:01:22 10° NNW 03:04:53 36° W 03:05:33 33° WSW
Cosmos 1763 Rocket 3.4 03:01:17 10° NNW 03:06:18 64° WSW 03:09:28 22° S
Cosmos 1821 Rocket 4.0 03:01:55 10° NNW 03:08:12 72° W 03:12:45 20° S
Cosmos 1825 3.3 03:07:41 26° WSW 03:08:35 29° WNW 03:11:55 10° NNW
ATLAS CENTAUR R/B 3.8 03:11:04 10° SE 03:12:07 11° ESE 03:13:13 10° E
Cosmos 1869 Rocket 3.7 03:10:45 24° S 03:13:17 70° E 03:17:38 10° NNE
MOZ.5/SAFIR/RUBIN 5/SL-8 3.7 03:13:25 17° SSE 03:17:03 87° WSW 03:21:45 10° NNW
Cosmos 1656 Rocket 4.0 03:14:34 24° SW 03:17:53 57° WNW 03:23:27 10° NNE
IRS-1C 4.1 03:14:08 10° NNE 03:19:29 79° WNW 03:22:56 23° SSW
Cosmos 1408 4.4 03:18:48 17° W 03:19:46 18° WNW 03:22:25 10° NNW
CZ-4B R/B 3.5 03:20:24 13° W 03:20:24 13° W 03:21:26 10° WNW
Cosmos 1814 Rocket 4.2 03:17:00 10° NNW 03:22:09 52° WSW 03:25:46 19° S
BREEZE-M DEB (TANK) 2.0 03:21:06 10° WNW 03:23:24 78° SSW 03:28:08 10° ESE
Cosmos 1867 3.6 03:20:08 24° SW 03:23:27 84° WNW 03:28:57 10° NNE
Cosmos 540 Rocket 3.6 03:20:32 10° NNW 03:25:42 78° ENE 03:30:48 10° SSE
NPP 4.2 03:22:44 10° N 03:27:52 46° WNW 03:31:13 21° SW
Meteor 2-6 Rocket 4.4 03:23:26 10° NNW 03:28:36 48° W 03:32:08 20° SSW
Cosmos 1943 Rocket 3.9 03:27:29 10° W 03:31:36 22° NW 03:35:50 10° N
Cosmos 1703 Rocket 3.8 03:27:42 10° NNW 03:31:58 49° W 03:34:34 21° SSW
Cosmos 1437 Rocket 2.8 03:29:54 23° SSW 03:32:25 82° WNW 03:36:33 10° N
Spot 4 Rocket 4.0 03:30:03 10° NNE 03:35:13 87° WNW 03:39:10 17° SSW
Cosmos 841 Rocket 3.7 03:30:40 10° NNW 03:35:43 51° WSW 03:40:09 13° S
Cosmos 1818 4.1 03:31:02 10° NW 03:36:03 37° WSW 03:40:38 12° S
Lacrosse 5 4.2 03:32:05 10° NNW 03:36:19 26° NNE 03:40:34 10° E
CZ-2D R/B 2.5 03:33:20 10° N 03:38:26 50° WNW 03:42:08 19° SW
Helios 1A Rocket 3.7 03:35:47 10° NNE 03:39:41 47° E 03:43:25 11° S
Cosmos 1782 4.3 03:36:59 10° NW 03:39:55 20° W 03:41:03 18° WSW
Cosmos 1812 3.7 03:36:55 10° N 03:40:41 47° ENE 03:44:25 10° SSE
ADEOS II 3.1 03:37:31 10° NNE 03:42:32 44° E 03:47:32 10° S
Cosmos 1184 Rocket 2.7 03:40:15 10° NNW 03:43:30 65° W 03:45:50 17° S
Okean 1-7 3.3 03:40:30 10° NNW 03:44:46 49° W 03:47:58 16° SSW
IRS-1D 3.9 03:41:27 10° N 03:46:27 51° WNW 03:50:08 17° SW
Meteor 1-27 Rocket 3.9 03:43:15 10° NNW 03:48:55 57° W 03:54:39 10° S
SL-16 R/B 3.2 03:46:32 16° SSW 03:50:42 34° W 03:56:15 10° NNW
Cosmos 2219 3.1 03:45:34 10° NNW 03:51:14 75° WSW 03:56:50 10° SSE
H-2A R/B 3.5 03:49:42 10° N 03:53:12 29° WNW 03:55:37 16° WSW
PSLV R/B 3.2 03:52:36 17° WSW 03:54:39 46° S 03:57:30 10° ESE
Meteor 1-4 Rocket 2.8 03:56:02 17° SSW 03:58:37 56° WNW 04:02:16 10° N
Cosmos 836 Rocket 4.5 03:54:50 10° NNW 04:00:09 73° WSW 04:05:25 10° S
Cosmos 1733 Rocket 3.3 03:58:00 10° S 04:02:16 69° E 04:06:36 10° NNE
Cosmos 1354 Rocket 4.0 03:58:32 13° SSW 04:03:09 80° WNW 04:08:25 10° NNE
Cosmos 1605 Rocket 4.1 03:58:20 10° NNW 04:04:15 54° W 04:10:12 10° SSW
Genesis I 3.2 04:02:26 10° NW 04:06:33 86° WSW 04:10:36 10° SSE
USA 229 DEB 3.8 04:00:08 10° NW 04:07:18 71° WSW 04:14:39 10° SSE
USA 229 3.8 04:00:14 10° NW 04:07:25 71° WSW 04:14:46 10° SSE
Cosmos 44 Rocket 3.7 04:03:27 11° SSW 04:07:58 58° ESE 04:12:53 10° NE
Resurs 1-4 Rocket 3.4 04:05:53 10° N 04:10:18 27° WNW 04:14:35 10° WSW
SL-8 R/B 3.6 04:06:15 10° WNW 04:11:04 71° SSW 04:15:51 10° SE
Cosmos 1674 Rocket 4.0 04:08:09 10° N 04:12:28 65° E 04:16:44 10° SSE
Cosmos 2100 Rocket 4.2 04:09:07 10° N 04:15:19 78° E 04:21:31 10° SSE
SeaSat 1 4.3 04:12:45 10° ESE 04:17:14 36° NE 04:21:44 10° N
Cosmos 1459 Rocket 4.3 04:11:27 10° N 04:17:51 76° E 04:24:13 10° SSE
Cosmos 2297 Rocket 2.5 04:14:00 10° NNW 04:19:41 75° ENE 04:25:19 10° SSE
SAR-Lupe-2 4.2 04:17:35 10° SSW 04:20:54 36° W 04:24:14 10° NNW
Cosmos 2278 4.5 04:16:15 10° S 04:21:41 51° ESE 04:27:08 10° NE
Cosmos 44 3.4 04:17:36 11° SW 04:22:00 67° NW 04:27:00 10° NNE
BREEZE M DEB (TANK) 3.4 04:19:51 10° WNW 04:22:48 28° N 04:24:41 10° ENE
Cosmos 389 Rocket 2.6 04:21:59 10° SSW 04:25:33 62° WNW 04:29:10 10° N
Cosmos 2227 Rocket 2.2 04:22:12 10° NNW 04:27:55 86° WSW 04:33:35 10° SSE
ATLAS CENTAUR Rocket 3.8 04:26:36 10° SSW 04:29:57 19° SSE 04:36:45 10° ESE
COSMOS 2455 3.7 04:25:17 10° NW 04:30:24 29° WSW 04:35:28 10° SSW
Cosmos 968 Rocket 3.6 04:27:51 10° SSW 04:33:07 78° WNW 04:38:25 10° NNE
Cosmos 1271 Rocket 4.0 04:29:30 10° SSE 04:33:17 43° E 04:37:01 10° NNE
Lacrosse 4 Rocket 3.6 04:30:36 10° W 04:33:33 17° NW 04:36:33 10° N
UNKNOWN OBJECT B 3.8 04:33:03 10° N 04:36:37 32° WNW 04:40:13 10° SW
ARIANE 5 R/B 3.9 04:34:58 10° NNW 04:38:54 24° WNW 04:42:49 10° WSW
Okean O Rocket 3.9 04:36:54 10° NE 04:40:31 24° E 04:44:07 10° SSE
Meteor 1-20 Rocket 4.3 04:35:01 10° SSW 04:40:38 78° W 04:46:24 10° N
